857  
ASUS44 KBMX 272310  
RWRAL  
 
ALABAMA REGIONAL WEATHER ROUNDUP  
NATIONAL WEATHER SERVICE BIRMINGHAM AL  
600 PM CDT TUE SEP 27 2022  
 
NOTE: "FAIR" INDICATES FEW OR NO CLOUDS BELOW 12,000 FEET  
WITH NO SIGNIFICANT WEATHER AND/OR S TO VISIBILITY
.  
 
THE REMARK "TC" DENOTES TEMPERATURE IN DEGREES CELSIUS.  
 
ALZ001>011-014-016>018-020-280000-  
NORTH ALABAMA  
 
CITY SKY/WX TMP DP RH WIND PRES REMARKS
 
MUSCLE SHOALS CLEAR 74 41 30 N7 30.11R  
HUNTSVILLE CLEAR 73 39 29 N9 30.11R  
DECATUR CLEAR 72 40 31 N12 30.12R  
HALEYVILLE FAIR 72 43 35 N3 30.14R  
GADSDEN CLEAR 72 41 32 N9 30.10R  

 
 
ALZ012-013-022-023-030>036-040>044-280000-  
WEST CENTRAL ALABAMA  
 
CITY SKY/WX TMP DP RH WIND PRES REMARKS
 
TUSCALOOSA CLEAR 76 42 29 N9 30.08R  
DEMOPOLIS FAIR 75 42 31 N6 30.07S  

 
 
ALZ015-024>026-033>036-041>044-280000-  
CENTRAL ALABAMA  
 
CITY SKY/WX TMP DP RH WIND PRES REMARKS
 
BIRMINGHAM CLEAR 73 38 27 N13 30.11R  
MONTGOMERY CLEAR 75 42 30 N8 30.05R  
SHELBY CO ARPT CLEAR 75 38 26 VRB7 30.08R  
MAXWELL AFB NOT AVBL  
GREENVILLE NOT AVBL  
SELMA FAIR 77 36 22 N9G17 30.05R  
PRATTVILLE FAIR 75 38 26 N6 30.05R  
BESSEMER FAIR 74 40 29 N8 30.10R  
TALLADEGA FAIR 73 40 29 N9 30.09S  
PELL CITY CLEAR 73 39 29 N9 30.09R  
SYLACAUGA FAIR 73 40 29 CALM 30.08S  

 
 
ALZ019-021-028-029-037-038-045>048-280000-  
EAST CENTRAL ALABAMA  
 
CITY SKY/WX TMP DP RH WIND PRES REMARKS
 
ANNISTON CLEAR 73 37 27 N9 30.09R  
ALEXANDER CITY CLEAR 73 38 28 N9 30.07R  
AUBURN CLEAR 72 41 32 N8 30.07R  

 
 
ALZ051>064-280000-  
SOUTHWEST ALABAMA  
 
CITY SKY/WX TMP DP RH WIND PRES REMARKS
 
MOBILE PTCLDY 77 39 25 N17G26 30.03R  
BROOKLEY FIELD CLEAR 79 34 19 N18G26 30.02R  
EVERGREEN CLEAR 75 41 29 N6G18 30.03R  

 
 
ALZ049-050-065>069-280000-  
SOUTHEAST ALABAMA  
 
CITY SKY/WX TMP DP RH WIND PRES REMARKS
 
DOTHAN MOCLDY 80 36 20 N10G17 30.02S  
OZARK PTCLDY 77 38 25 NW9 29.99R  
TROY CLEAR 77 39 25 N10G20 30.04R  
EUFAULA FAIR 77 38 24 VRB5 30.03R  

 
 
 
CLICK HERE TO GO TO PREVIOUS BULLETINS.

The Nexlab AL Page Main Text Page